sat.trackr.live / text

‹ back to catalog

STARLINK-34673

NORAD 65090 · 2025-167N

PAYLOAD ACTIVE UNKNOWN

§ Identity

Operator
Country
US
Launch date
2025-08-04
Launch site
AFETR
Launch vehicle
Mass (kg)
RCS (m²)

Purposes: comms

External: N2YO · Heavens-Above · Gunter

§ Orbital elements

Epoch: 2026-05-24T22:59:11.391072Z

Period
94.10 min
Inclination
53.1609°
Eccentricity
0.0001168
Mean motion
15.30212138 rev/d
Perigee alt
474.4 km
Apogee alt
476.0 km
Semi-major
6,853.3 km
B*
6.9772e-4
RAAN
32.6285°
Arg perigee
79.3677°
Mean anomaly
280.7455°
Rev number
4,515

§ Raw data

STARLINK-346731 65090U 25167N   26144.95777073  .00020370  00000+0  69772-3 0  99982 65090  53.1609  32.6285 0001168  79.3677 280.7455 15.30212138 45159

JSON: /api/v1/satellites/65090 · /tle

For live sub-satellite position, see the globe view (requires WebGL).

§ Visibility from observer

Set your observer location to see the next 7 days of passes ≥ 10°. The values pass through the URL so the page stays shareable.

No JS? Fill the form by hand. The geolocation button needs JavaScript.